DLH789 EDDF-EGCC

Flight info

Callsign DLH789
Flight time 1h 16m
Altitude 34000
Route OBOKA3M OBOKA Z29 TORNU DCT GALSO Q63 ERING L179 LAM UN57 WELIN T420 ELVOS
Aircraft B744/H-SDE3FGHIM1M2RWXY/LB1

Departure

Time 2026-04-17 09:54
Airport Frankfurt Main Airport (EDDF)

Arrival

Time 2026-04-17 11:10
Airport Manchester Airport (EGCC)
Time Latitude Longitude Altitude Speed Heading
2026-04-17 09:31 50.04777 8.56495 363 ft 0 kts 340°
2026-04-17 09:42 50.04776 8.56495 356 ft 1 kts 340°
2026-04-17 09:42 50.04764 8.56503 365 ft 3 kts 340°
2026-04-17 09:42 50.04745 8.56514 362 ft 3 kts 340°
2026-04-17 09:43 50.04730 8.56522 365 ft 3 kts 332°
2026-04-17 09:43 50.04716 8.56539 365 ft 3 kts 290°
2026-04-17 09:43 50.04714 8.56566 364 ft 3 kts 251°
2026-04-17 09:43 50.04721 8.56589 362 ft 1 kts 233°
2026-04-17 09:44 50.04724 8.56595 365 ft 1 kts 233°
2026-04-17 09:45 50.04722 8.56592 365 ft 0 kts 233°
2026-04-17 09:45 50.04722 8.56591 365 ft 0 kts 233°
2026-04-17 09:46 50.04721 8.56589 365 ft 0 kts 233°
2026-04-17 09:46 50.04720 8.56586 362 ft 0 kts 233°
2026-04-17 09:46 50.04702 8.56549 365 ft 9 kts 236°
2026-04-17 09:46 50.04664 8.56425 362 ft 17 kts 249°
2026-04-17 09:47 50.04612 8.56213 362 ft 25 kts 250°
2026-04-17 09:47 50.04521 8.55977 363 ft 27 kts 214°
2026-04-17 09:47 50.04327 8.55950 357 ft 28 kts 168°
2026-04-17 09:47 50.04235 8.55884 356 ft 16 kts 236°
2026-04-17 09:48 50.04179 8.55695 361 ft 23 kts 249°
2026-04-17 09:48 50.04114 8.55422 360 ft 31 kts 250°
2026-04-17 09:48 50.04033 8.55078 362 ft 37 kts 250°
2026-04-17 09:48 50.03956 8.54754 362 ft 27 kts 249°
2026-04-17 09:49 50.03887 8.54469 360 ft 28 kts 249°
2026-04-17 09:49 50.03804 8.54241 357 ft 18 kts 244°
2026-04-17 09:49 50.03760 8.54062 363 ft 16 kts 250°
2026-04-17 09:49 50.03711 8.53855 360 ft 24 kts 250°
2026-04-17 09:50 50.03656 8.53622 360 ft 23 kts 249°
2026-04-17 09:50 50.03607 8.53435 357 ft 15 kts 249°
2026-04-17 09:50 50.03561 8.53242 359 ft 23 kts 250°
2026-04-17 09:50 50.03519 8.53060 362 ft 20 kts 250°
2026-04-17 09:51 50.03501 8.52984 361 ft 3 kts 250°
2026-04-17 09:51 50.03482 8.52907 359 ft 12 kts 248°
2026-04-17 09:51 50.03446 8.52773 361 ft 0 kts 246°
2026-04-17 09:52 50.03435 8.52734 357 ft 7 kts 246°
2026-04-17 09:52 50.03400 8.52643 358 ft 13 kts 223°
2026-04-17 09:52 50.03298 8.52596 362 ft 9 kts 177°
2026-04-17 09:53 50.03294 8.52596 362 ft 0 kts 177°
2026-04-17 09:53 50.03293 8.52596 362 ft 1 kts 177°
2026-04-17 09:53 50.03006 8.52607 356 ft 95 kts 180°
2026-04-17 09:53 50.02009 8.52611 357 ft 188 kts 179°
2026-04-17 09:54 50.00542 8.52627 782 ft 223 kts 179°
2026-04-17 09:54 49.98961 8.52669 1516 ft 237 kts 177°
2026-04-17 09:54 49.97236 8.52831 2115 ft 256 kts 176°
2026-04-17 09:54 49.95422 8.52768 2705 ft 268 kts 194°
2026-04-17 09:55 49.93619 8.51373 3371 ft 308 kts 220°
2026-04-17 09:55 49.92197 8.48682 4053 ft 347 kts 240°
2026-04-17 09:55 49.91369 8.45044 4727 ft 367 kts 259°
2026-04-17 09:55 49.91299 8.40950 5414 ft 380 kts 276°
2026-04-17 09:56 49.92007 8.36881 6128 ft 390 kts 292°
2026-04-17 09:56 49.93443 8.33214 6939 ft 396 kts 308°
2026-04-17 09:56 49.95494 8.30244 7702 ft 408 kts 324°
2026-04-17 09:56 49.97945 8.28243 8468 ft 405 kts 339°
2026-04-17 09:57 50.00688 8.26996 9255 ft 402 kts 345°
2026-04-17 09:57 50.03348 8.25936 10049 ft 390 kts 344°
2026-04-17 09:57 50.05957 8.24748 10759 ft 390 kts 341°
2026-04-17 09:57 50.08503 8.23270 11500 ft 394 kts 336°
2026-04-17 09:58 50.10981 8.21413 12248 ft 395 kts 330°
2026-04-17 09:58 50.13337 8.19147 13027 ft 399 kts 324°
2026-04-17 09:58 50.15450 8.16348 13803 ft 401 kts 314°
2026-04-17 09:58 50.17317 8.13086 14541 ft 404 kts 309°
2026-04-17 09:59 50.18505 8.10841 15010 ft 408 kts 309°
2026-04-17 09:59 50.20381 8.07418 15753 ft 420 kts 312°
2026-04-17 09:59 50.22449 8.04119 16513 ft 427 kts 315°
2026-04-17 09:59 50.24571 8.00827 17292 ft 432 kts 314°
2026-04-17 10:00 50.26641 7.97401 18068 ft 436 kts 312°
2026-04-17 10:00 50.28703 7.93887 18829 ft 440 kts 312°
2026-04-17 10:00 50.30815 7.90384 19541 ft 444 kts 313°
2026-04-17 10:00 50.33665 7.85739 20510 ft 449 kts 313°
2026-04-17 10:01 50.35117 7.83337 21019 ft 454 kts 312°
2026-04-17 10:01 50.37291 7.79700 21775 ft 459 kts 312°
2026-04-17 10:01 50.39490 7.76030 22574 ft 463 kts 313°
2026-04-17 10:01 50.41707 7.72354 23373 ft 466 kts 312°
2026-04-17 10:02 50.43945 7.68636 24133 ft 471 kts 312°
2026-04-17 10:02 50.46200 7.64867 24835 ft 474 kts 312°
2026-04-17 10:02 50.48433 7.61126 25545 ft 477 kts 312°
2026-04-17 10:02 50.50710 7.57316 26278 ft 479 kts 312°
2026-04-17 10:03 50.52994 7.53491 27032 ft 480 kts 312°
2026-04-17 10:03 50.55274 7.49663 27800 ft 481 kts 312°
2026-04-17 10:03 50.57560 7.45816 28588 ft 478 kts 313°
2026-04-17 10:03 50.59823 7.42003 29390 ft 476 kts 312°
2026-04-17 10:04 50.62069 7.38217 30215 ft 472 kts 312°
2026-04-17 10:04 50.64301 7.34446 30949 ft 468 kts 312°
2026-04-17 10:04 50.66514 7.30701 31694 ft 462 kts 312°
2026-04-17 10:04 50.68700 7.26997 32444 ft 459 kts 311°
2026-04-17 10:05 50.70864 7.23325 33208 ft 455 kts 311°
2026-04-17 10:05 50.72988 7.19716 33933 ft 453 kts 311°
2026-04-17 10:05 50.75154 7.16030 34232 ft 450 kts 311°
2026-04-17 10:05 50.77247 7.12462 34226 ft 446 kts 311°
2026-04-17 10:06 50.81491 7.05211 34232 ft 458 kts 311°
2026-04-17 10:06 50.85798 6.97660 34258 ft 463 kts 306°
2026-04-17 10:07 50.89056 6.88887 34227 ft 463 kts 296°
2026-04-17 10:07 50.91972 6.79800 34235 ft 462 kts 297°
2026-04-17 10:08 50.94878 6.70718 34236 ft 461 kts 296°
2026-04-17 10:08 50.97771 6.61632 34235 ft 461 kts 296°
2026-04-17 10:09 51.00661 6.52530 34238 ft 462 kts 296°
2026-04-17 10:09 51.03525 6.43471 34241 ft 462 kts 296°
2026-04-17 10:10 51.06403 6.34339 34243 ft 462 kts 296°
2026-04-17 10:11 51.10703 6.20628 34243 ft 462 kts 296°
2026-04-17 10:11 51.13525 6.11455 34241 ft 461 kts 292°
2026-04-17 10:12 51.15364 6.01676 34245 ft 462 kts 284°
2026-04-17 10:12 51.16975 5.91779 34240 ft 461 kts 284°
2026-04-17 10:13 51.18642 5.81919 34240 ft 461 kts 289°
2026-04-17 10:13 51.20766 5.72292 34223 ft 459 kts 289°
2026-04-17 10:14 51.22863 5.62671 34216 ft 459 kts 289°
2026-04-17 10:14 51.24953 5.53088 34214 ft 460 kts 289°
2026-04-17 10:15 51.27041 5.43443 34220 ft 460 kts 289°
2026-04-17 10:15 51.29125 5.33781 34220 ft 459 kts 289°
2026-04-17 10:16 51.31192 5.24148 34213 ft 459 kts 288°
2026-04-17 10:16 51.33259 5.14471 34225 ft 459 kts 288°
2026-04-17 10:17 51.35317 5.04790 34223 ft 459 kts 288°
2026-04-17 10:17 51.37365 4.95109 34230 ft 459 kts 288°
2026-04-17 10:18 51.39403 4.85432 34233 ft 459 kts 288°
2026-04-17 10:18 51.41439 4.75720 34224 ft 458 kts 288°
2026-04-17 10:19 51.43454 4.66051 34209 ft 458 kts 288°
2026-04-17 10:19 51.45463 4.56375 34208 ft 458 kts 287°
2026-04-17 10:20 51.47466 4.46673 34214 ft 458 kts 287°
2026-04-17 10:20 51.49455 4.37000 34230 ft 459 kts 287°
2026-04-17 10:21 51.51439 4.27298 34214 ft 456 kts 287°
2026-04-17 10:21 51.53409 4.17616 34210 ft 456 kts 287°
2026-04-17 10:22 51.55375 4.07909 34206 ft 456 kts 287°
2026-04-17 10:22 51.57318 3.98265 34203 ft 456 kts 287°
2026-04-17 10:23 51.59265 3.88557 34197 ft 456 kts 287°
2026-04-17 10:23 51.61200 3.78858 34197 ft 456 kts 287°
2026-04-17 10:24 51.63132 3.69127 34197 ft 456 kts 287°
2026-04-17 10:24 51.65053 3.59406 34196 ft 456 kts 287°
2026-04-17 10:25 51.66970 3.49653 34204 ft 456 kts 286°
2026-04-17 10:25 51.68875 3.39909 34201 ft 456 kts 286°
2026-04-17 10:26 51.70769 3.30172 34209 ft 455 kts 286°
2026-04-17 10:26 51.72565 3.20447 34215 ft 454 kts 279°
2026-04-17 10:27 51.72711 3.10298 34214 ft 455 kts 263°
2026-04-17 10:27 51.71805 3.00201 34212 ft 454 kts 263°
2026-04-17 10:28 51.70944 2.90107 34218 ft 454 kts 263°
2026-04-17 10:28 51.70049 2.80054 34207 ft 453 kts 262°
2026-04-17 10:29 51.69157 2.69982 34205 ft 454 kts 262°
2026-04-17 10:29 51.68255 2.59920 34208 ft 453 kts 262°
2026-04-17 10:30 51.67351 2.49874 34202 ft 453 kts 262°
2026-04-17 10:30 51.66435 2.39850 34205 ft 453 kts 262°
2026-04-17 10:31 51.65514 2.29860 34195 ft 453 kts 262°
2026-04-17 10:31 51.64581 2.19825 34196 ft 453 kts 262°
2026-04-17 10:32 51.63638 2.09796 34198 ft 453 kts 262°
2026-04-17 10:32 51.62713 1.99755 34196 ft 453 kts 262°
2026-04-17 10:33 51.61779 1.89727 34188 ft 453 kts 261°
2026-04-17 10:33 51.60837 1.79736 34190 ft 452 kts 261°
2026-04-17 10:34 51.59887 1.69727 34191 ft 452 kts 261°
2026-04-17 10:34 51.59202 1.59671 34196 ft 453 kts 270°
2026-04-17 10:35 51.59583 1.49541 34191 ft 453 kts 272°
2026-04-17 10:35 51.60006 1.39491 34186 ft 453 kts 272°
2026-04-17 10:36 51.60432 1.29382 34182 ft 453 kts 272°
2026-04-17 10:36 51.60846 1.19260 34183 ft 453 kts 272°
2026-04-17 10:37 51.61253 1.09128 34177 ft 454 kts 272°
2026-04-17 10:37 51.61650 0.99002 34179 ft 454 kts 272°
2026-04-17 10:38 51.62039 0.88874 34184 ft 451 kts 271°
2026-04-17 10:38 51.62415 0.78859 34187 ft 451 kts 271°
2026-04-17 10:39 51.62784 0.68784 34187 ft 451 kts 271°
2026-04-17 10:39 51.63144 0.58715 34187 ft 451 kts 271°
2026-04-17 10:40 51.63497 0.48619 34181 ft 451 kts 271°
2026-04-17 10:40 51.63840 0.38569 34176 ft 449 kts 271°
2026-04-17 10:41 51.64173 0.28531 34177 ft 449 kts 271°
2026-04-17 10:41 51.64773 0.18524 34192 ft 453 kts 282°
2026-04-17 10:41 51.65880 0.13745 34193 ft 459 kts 294°
2026-04-17 10:42 51.67623 0.09402 34194 ft 467 kts 305°
2026-04-17 10:42 51.72306 0.02002 33885 ft 478 kts 313°
2026-04-17 10:42 51.74807 -0.01517 33157 ft 477 kts 312°
2026-04-17 10:43 51.77208 -0.05233 32509 ft 475 kts 307°
2026-04-17 10:43 51.79429 -0.09137 31865 ft 468 kts 306°
2026-04-17 10:43 51.80876 -0.11708 31464 ft 466 kts 307°
2026-04-17 10:43 51.83915 -0.16693 30714 ft 464 kts 309°
2026-04-17 10:44 51.86176 -0.20301 30105 ft 460 kts 308°
2026-04-17 10:44 51.88390 -0.23997 29410 ft 455 kts 307°
2026-04-17 10:44 51.89857 -0.26500 28952 ft 453 kts 307°
2026-04-17 10:44 51.92040 -0.30175 28275 ft 450 kts 308°
2026-04-17 10:45 51.94934 -0.34949 27406 ft 446 kts 308°
2026-04-17 10:45 51.97091 -0.38540 26770 ft 443 kts 307°
2026-04-17 10:45 51.98532 -0.40965 26346 ft 441 kts 307°
2026-04-17 10:45 52.00659 -0.44549 25728 ft 439 kts 308°
2026-04-17 10:46 52.03455 -0.49230 25166 ft 434 kts 308°
2026-04-17 10:46 52.04874 -0.51608 25160 ft 434 kts 307°
2026-04-17 10:46 52.06956 -0.55119 24724 ft 437 kts 307°
2026-04-17 10:46 52.09061 -0.58668 24134 ft 434 kts 307°
2026-04-17 10:47 52.11148 -0.62186 23545 ft 431 kts 307°
2026-04-17 10:47 52.13225 -0.65692 22868 ft 429 kts 308°
2026-04-17 10:47 52.15288 -0.69186 22200 ft 426 kts 308°
2026-04-17 10:47 52.17332 -0.72652 21553 ft 423 kts 308°
2026-04-17 10:48 52.19364 -0.76100 20916 ft 420 kts 308°
2026-04-17 10:48 52.21383 -0.79530 20328 ft 417 kts 308°
2026-04-17 10:48 52.23374 -0.82907 20133 ft 407 kts 309°
2026-04-17 10:48 52.25557 -0.85960 20131 ft 418 kts 319°
2026-04-17 10:49 52.28035 -0.88520 20127 ft 423 kts 323°
2026-04-17 10:49 52.30552 -0.91017 20120 ft 424 kts 323°
2026-04-17 10:49 52.33050 -0.93498 20124 ft 424 kts 323°
2026-04-17 10:49 52.35605 -0.96046 20112 ft 424 kts 323°
2026-04-17 10:50 52.38089 -0.98529 20113 ft 425 kts 323°
2026-04-17 10:50 52.40618 -1.01056 20114 ft 426 kts 322°
2026-04-17 10:50 52.43145 -1.03584 20100 ft 426 kts 322°
2026-04-17 10:50 52.45682 -1.06125 20094 ft 426 kts 322°
2026-04-17 10:51 52.48214 -1.08667 20084 ft 426 kts 322°
2026-04-17 10:51 52.50738 -1.11203 20080 ft 426 kts 322°
2026-04-17 10:51 52.53264 -1.13746 20073 ft 428 kts 322°
2026-04-17 10:51 52.55799 -1.16300 20068 ft 427 kts 322°
2026-04-17 10:52 52.58331 -1.18855 19820 ft 430 kts 322°
2026-04-17 10:52 52.60878 -1.21426 19206 ft 429 kts 323°
2026-04-17 10:52 52.63416 -1.23988 18609 ft 426 kts 323°
2026-04-17 10:52 52.65936 -1.26538 17984 ft 424 kts 323°
2026-04-17 10:53 52.68440 -1.29080 17328 ft 422 kts 323°
2026-04-17 10:53 52.70938 -1.31616 16675 ft 419 kts 323°
2026-04-17 10:53 52.73408 -1.34129 16042 ft 416 kts 323°
2026-04-17 10:53 52.75861 -1.36630 15464 ft 413 kts 323°
2026-04-17 10:54 52.78297 -1.39116 14857 ft 409 kts 323°
2026-04-17 10:54 52.80709 -1.41579 14260 ft 406 kts 323°
2026-04-17 10:54 52.83100 -1.44026 13636 ft 402 kts 323°
2026-04-17 10:54 52.85467 -1.46450 13104 ft 396 kts 323°
2026-04-17 10:55 52.87730 -1.48765 13007 ft 379 kts 323°
2026-04-17 10:55 52.89946 -1.51037 12984 ft 361 kts 323°
2026-04-17 10:55 52.92036 -1.53187 12998 ft 345 kts 322°
2026-04-17 10:55 52.94050 -1.55269 13004 ft 343 kts 322°
2026-04-17 10:56 52.96058 -1.57350 12561 ft 348 kts 322°
2026-04-17 10:56 52.98133 -1.59491 11904 ft 353 kts 322°
2026-04-17 10:56 53.00230 -1.61649 11330 ft 356 kts 322°
2026-04-17 10:56 53.02323 -1.63808 10893 ft 352 kts 322°
2026-04-17 10:57 53.04427 -1.66011 10282 ft 353 kts 319°
2026-04-17 10:57 53.06191 -1.68539 9606 ft 327 kts 306°
2026-04-17 10:57 53.07642 -1.71326 8901 ft 312 kts 304°
2026-04-17 10:57 53.09032 -1.74019 8243 ft 301 kts 304°
2026-04-17 10:58 53.10351 -1.76567 7996 ft 279 kts 304°
2026-04-17 10:58 53.11598 -1.78988 7983 ft 275 kts 303°
2026-04-17 10:58 53.12834 -1.81404 7982 ft 275 kts 304°
2026-04-17 10:58 53.14069 -1.83807 7988 ft 275 kts 304°
2026-04-17 10:59 53.15309 -1.86215 7988 ft 275 kts 304°
2026-04-17 10:59 53.16551 -1.88632 7559 ft 277 kts 304°
2026-04-17 10:59 53.17797 -1.91060 6914 ft 273 kts 304°
2026-04-17 10:59 53.19024 -1.93448 6311 ft 265 kts 304°
2026-04-17 11:00 53.20178 -1.95683 5687 ft 242 kts 303°
2026-04-17 11:00 53.21221 -1.97715 5137 ft 222 kts 302°
2026-04-17 11:00 53.22190 -1.99623 4971 ft 203 kts 301°
2026-04-17 11:00 53.23106 -2.01284 4869 ft 195 kts 309°
2026-04-17 11:01 53.24330 -2.02411 4189 ft 207 kts 333°
2026-04-17 11:01 53.25782 -2.02710 3595 ft 215 kts 359°
2026-04-17 11:01 53.27277 -2.02506 3461 ft 214 kts 358°
2026-04-17 11:01 53.28773 -2.02324 3491 ft 216 kts 358°
2026-04-17 11:02 53.30278 -2.02141 3483 ft 216 kts 358°
2026-04-17 11:02 53.31778 -2.01954 3479 ft 215 kts 357°
2026-04-17 11:02 53.33282 -2.01772 3481 ft 217 kts 357°
2026-04-17 11:02 53.34776 -2.01583 3451 ft 214 kts 356°
2026-04-17 11:03 53.36275 -2.01409 3476 ft 216 kts 357°
2026-04-17 11:03 53.37771 -2.01223 3466 ft 215 kts 358°
2026-04-17 11:03 53.39269 -2.01037 3466 ft 219 kts 357°
2026-04-17 11:03 53.40786 -2.00853 3479 ft 218 kts 358°
2026-04-17 11:04 53.42300 -2.00664 3461 ft 219 kts 358°
2026-04-17 11:04 53.43796 -2.00480 3484 ft 218 kts 358°
2026-04-17 11:04 53.45294 -2.00299 3478 ft 214 kts 355°
2026-04-17 11:04 53.46649 -2.00912 3475 ft 195 kts 315°
2026-04-17 11:05 53.47386 -2.02540 3461 ft 158 kts 274°
2026-04-17 11:05 53.47259 -2.04109 3353 ft 128 kts 229°
2026-04-17 11:05 53.46548 -2.04924 3114 ft 122 kts 216°
2026-04-17 11:05 53.45878 -2.05852 3273 ft 121 kts 226°
2026-04-17 11:06 53.45310 -2.06935 3238 ft 125 kts 224°
2026-04-17 11:06 53.44778 -2.08011 3035 ft 117 kts 223°
2026-04-17 11:06 53.44264 -2.09060 2860 ft 117 kts 225°
2026-04-17 11:06 53.43737 -2.10143 2712 ft 126 kts 225°
2026-04-17 11:07 53.43204 -2.11253 2529 ft 120 kts 225°
2026-04-17 11:07 53.42674 -2.12354 2365 ft 120 kts 225°
2026-04-17 11:07 53.42160 -2.13424 2182 ft 118 kts 225°
2026-04-17 11:07 53.41643 -2.14497 2017 ft 118 kts 225°
2026-04-17 11:08 53.41127 -2.15567 1845 ft 118 kts 224°
2026-04-17 11:08 53.40609 -2.16640 1682 ft 118 kts 224°
2026-04-17 11:08 53.40083 -2.17730 1541 ft 122 kts 225°
2026-04-17 11:08 53.39548 -2.18837 1377 ft 121 kts 225°
2026-04-17 11:09 53.39012 -2.19943 1195 ft 121 kts 225°
2026-04-17 11:09 53.38497 -2.21047 1038 ft 121 kts 224°
2026-04-17 11:09 53.37922 -2.22185 898 ft 134 kts 227°
2026-04-17 11:10 53.36657 -2.24851 482 ft 153 kts 229°
2026-04-17 11:10 53.35999 -2.26214 270 ft 147 kts 227°
2026-04-17 11:10 53.35442 -2.27323 256 ft 87 kts 231°
2026-04-17 11:10 53.35256 -2.27893 262 ft 37 kts 257°
2026-04-17 11:11 53.35235 -2.28128 263 ft 0 kts 274°
2026-04-17 11:11 53.35236 -2.28140 263 ft 3 kts 290°
2026-04-17 11:11 53.35262 -2.28168 264 ft 10 kts 339°
2026-04-17 11:12 53.35362 -2.28176 264 ft 22 kts
2026-04-17 11:12 53.35522 -2.28101 263 ft 24 kts 37°
2026-04-17 11:12 53.35663 -2.27831 260 ft 36 kts 54°
2026-04-17 11:12 53.35802 -2.27661 258 ft 13 kts 19°
2026-04-17 11:13 53.35828 -2.27569 256 ft 11 kts 84°
2026-04-17 11:13 53.35828 -2.27560 256 ft 0 kts 85°